Regional Weather Roundup
Issued by NWS

Home | Current Version | Previous Version | Graphics & Text | Print | Product List | Glossary Off
Versions: 1 2 3 4 5 6 7 8 9 10 11 12 13 14 15 16 17 18 19 20 21 22 23 24 25 26 27 28 29 30 31 32 33 34 35 36 37 38 39 40 41 42 43 44 45 46 47 48 49 50

000
ASUS43 KTOP 200759
RWRKS

WEATHER ROUNDUP FOR KANSAS
NATIONAL WEATHER SERVICE GOODLAND KS
300 AM CDT WED AUG 20 2014

NOTE:  "FAIR" INDICATES FEW OR NO CLOUDS BELOW 12,000 FEET WITH NO
SIGNIFICANT WEATHER AND/OR OBSTRUCTIONS TO VISIBILITY.

KSZ001>006-013>018-027>032-041>047-200900-
NORTHWEST KANSAS

CITY           SKY/WX    TMP DP  RH WIND       PRES   REMARKS
GOODLAND       MOCLDY    75  59  57 S13       29.84S
HAYS           PTCLDY    75  61  60 S16       29.81S
HILL CITY      PTCLDY    77  62  59 SW7       29.80S
RUSSELL        PTCLDY    78  61  55 S17G26    29.79S
$$

KSZ061>065-074>080-084>089-200900-
SOUTHWEST KANSAS

CITY           SKY/WX    TMP DP  RH WIND       PRES   REMARKS
DODGE CITY     CLEAR     73  61  65 S14       29.85F
ELKHART          N/A     71  60  68 S10         N/A
GARDEN CITY    CLEAR     71  62  73 S9        29.85S
GREAT BEND     CLEAR     77  61  57 S14       29.83S
LIBERAL        CLEAR     75  61  60 S14       29.88S
PRATT          CLEAR     73  61  64 S10       29.86S
$$

KSZ066>073-081>083-090>101-200900-
SOUTHEAST KANSAS

CITY           SKY/WX    TMP DP  RH WIND       PRES   REMARKS
CHANUTE        CLEAR     74  69  85 S7        29.87S
COFFEYVILLE    CLEAR     78  72  81 S8        29.87S
HUTCHINSON     CLEAR     77  65  66 S10       29.84F
MEDICINE LODGE   N/A     75  63  66 S8        29.84S
NEWTON         CLEAR     79  64  61 S15       29.89R
PARSONS        CLEAR     77  70  79 S5        29.88F
WICHITA INTL   PTCLDY    76  68  76 S9        29.85S
WICHITA JABRA  CLEAR     78  68  71 S10       29.86S
WINFIELD       CLEAR     75  70  84 SE7       29.87F
$$

KSZ007>012-019>026-033>040-048>060-102>105-200900-
NORTHEAST KANSAS

CITY           SKY/WX    TMP DP  RH WIND       PRES   REMARKS
CONCORDIA      MOCLDY    77  67  71 S16       29.79S
EMPORIA        CLEAR     75  68  78 S10       29.85S
LAWRENCE       CLEAR     80  69  69 SW9       29.83S
MANHATTAN      PTCLDY    79  68  69 SW10      29.81S
OLATHE IND     CLEAR     79  69  71 SW10      29.85S
OLATHE EXE     CLEAR     76  69  79 SW7       29.84S
SALINA         PTCLDY    78  68  71 S10       29.81S
TOPEKA BILLARD CLEAR     80  68  66 S9        29.82S
TOPEKA FORBES  CLEAR     76  67  73 S8        29.83S
$$



USA.gov is the U.S. government's official web portal to all federal, state and local government web resources and services.